Temperature
21 19 16 15 15 15 15 15 15 14 14 14 14 13 13 13 13 13 13 13 13 13 13 13 13 13 13 13 13 13 13 13 13 13 13 14 14 14 13 12 13 13 13
21 20 17 16 15 15 15 15 15 14 14 14 13 12 12 12 12 12 12 12 13 13 13 13 13 13 13 12 13 13 13 12 13 12 12 13 13 13 13 12 12 12 12
22 20 18 16 16 15 16 15 15 14 14 13 13 12 11 12 12 12 12 12 12 12 12 13 13 13 13 13 12 13 13 13 12 12 12 13 13 12 12 12 11 11 12
21 20 19 17 16 16 16 15 15 14 14 13 13 12 12 12 12 12 12 12 12 12 13 13 13 13 13 13 13 13 13 13 13 13 13 13 13 12 12 11 11 11 11
21 20 19 18 17 17 16 15 15 15 14 14 13 12 12 12 12 12 13 12 12 12 13 14 14 14 14 14 14 14 14 14 14 13 14 13 13 13 12 11 11 11 11
21 20 19 18 18 17 16 16 16 15 15 14 14 12 12 13 13 13 13 12 12 13 14 14 14 14 14 14 14 14 14 14 14 14 13 13 13 13 13 12 12 11 11
20 20 19 18 18 17 17 16 16 15 15 15 14 13 12 13 13 13 13 13 13 13 13 13 14 14 14 14 14 14 14 14 14 14 13 13 13 13 13 13 13 12 11
19 19 19 19 18 18 17 16 16 15 15 15 14 13 13 13 13 13 13 13 13 13 13 13 13 14 14 14 13 13 13 12 13 13 12 12 12 13 13 13 13 13 12
18 18 19 19 18 18 16 16 15 15 15 14 14 13 13 13 13 13 13 13 13 13 13 13 13 13 13 13 12 12 12 12 12 12 12 12 12 12 12 12 12 12 12
18 18 18 18 18 18 17 16 15 15 14 14 13 14 14 14 14 14 13 14 14 14 13 13 13 13 13 12 12 12 12 12 12 12 12 12 12 12 12 12 12 13 13
18 18 17 17 18 18 17 16 15 14 14 13 13 14 14 14 14 14 14 14 14 13 13 13 13 13 12 12 12 12 12 12 12 12 12 12 12 12 12 12 12 13 13
19 18 17 17 17 17 17 16 15 14 14 13 13 14 14 14 14 14 14 13 13 13 12 12 12 12 12 12 12 12 12 12 12 12 12 12 12 12 12 12 12 12 12
20 19 18 18 17 17 16 16 15 14 13 13 13 14 14 14 14 13 13 13 13 12 12 12 12 12 12 12 12 12 12 12 12 12 12 12 11 11 11 11 12 12 12
20 19 19 18 17 17 16 16 15 14 13 13 13 13 13 13 13 13 12 12 12 12 12 12 12 12 11 12 12 12 12 12 12 12 12 11 11 11 11 10 11 11 11
20 20 19 18 17 17 16 15 14 14 13 13 12 12 12 12 12 12 11 11 11 11 11 11 11 12 12 12 12 12 12 12 11 11 11 10 10 10 10 10 10 10 11
20 20 20 19 18 17 16 15 14 14 13 13 12 12 12 12 12 11 11 11 11 11 11 11 12 12 12 12 12 11 11 10 10 10 9 9 9 10 10 10 10 10 10
20 20 20 20 18 17 16 15 14 14 13 13 12 12 12 12 11 11 11 11 11 11 12 12 12 12 12 11 11 10 10 10 9 9 9 9 9 9 9 10 10 10 10
20 21 21 20 19 17 15 14 14 14 13 13 12 12 12 12 11 11 11 11 11 12 11 11 11 11 11 10 10 10 10 10 9 9 8 9 9 9 9 9 9 9 10
20 20 20 20 18 17 15 14 14 14 13 13 12 12 12 11 11 11 11 11 11 11 11 10 10 9 9 9 9 10 10 10 9 8 8 8 9 9 9 9 8 9 9
20 20 20 19 17 16 15 14 14 14 13 13 12 12 12 11 11 11 11 11 11 10 10 10 9 8 8 8 9 9 9 9 8 8 8 8 8 8 8 8 8 8 8
19 19 19 18 17 16 15 14 13 13 13 12 12 12 11 11 11 11 11 11 10 10 10 9 8 8 7 7 8 8 9 8 8 8 7 7 8 8 8 7 7 7 7
18 18 18 17 16 16 14 13 13 13 12 12 12 11 11 11 11 11 10 10 10 9 9 8 7 7 6 6 5 6 6 7 7 7 8 8 7 7 6 6 6 6 6
17 17 17 16 15 14 14 13 13 12 12 11 11 11 11 11 11 10 10 10 9 9 8 8 7 6 5 5 4 3 3 3 3 4 5 5 5 5 5 5 5 5 5
16 16 16 15 14 14 13 13 13 12 12 11 11 11 11 11 10 10 9 9 9 8 7 7 6 5 4 4 4 3 3 2 1 1 3 4 4 4 4 4 4 4 4
16 15 15 14 14 13 13 13 12 12 12 11 11 11 11 10 10 9 9 8 8 7 7 6 5 4 4 3 3 3 2 2 1 -1 -1 1 3 3 3 3 3 3 2
15 14 14 13 12 12 13 12 12 11 11 11 11 11 11 10 9 9 8 8 7 6 6 5 4 4 3 3 2 2 1 1 0 -2 -3 -2 -2 0 1 2 1 1 0
Wind_Speed
5 8 18 18 18 17 15 13 11 10 9 8 7 9 9 9 10 7 5 5 6 6 7 8 8 9 10 8 7 6 4 4 5 7 7 7 6 5 5 4 6 5 4
8 12 17 18 19 17 16 13 11 10 9 8 8 10 9 7 6 5 5 5 5 5 6 6 6 6 7 7 6 4 3 3 4 5 5 5 4 5 6 5 3 3 4
9 14 16 18 19 18 16 14 12 11 10 9 9 8 7 6 6 6 5 5 4 4 5 5 5 6 5 5 4 4 4 4 5 5 5 4 5 6 6 7 3 3 6
10 14 14 18 19 18 16 14 13 11 10 10 9 8 7 7 7 7 7 6 4 3 3 3 4 5 4 4 5 5 5 6 6 5 4 5 6 9 9 7 7 6 7
8 12 14 18 18 17 17 15 13 11 10 10 8 4 3 7 8 8 9 7 6 4 2 2 2 2 3 4 5 5 5 6 5 4 3 5 6 10 10 9 8 8 8
9 11 14 17 16 17 16 15 13 12 10 9 8 4 2 2 7 9 8 7 7 5 2 1 1 3 4 5 7 8 8 7 4 4 6 7 8 10 10 10 11 11 10
9 9 13 17 17 17 16 15 13 12 10 9 9 7 3 2 2 7 7 7 6 4 1 1 3 5 6 8 9 10 10 8 5 5 8 9 10 11 11 12 13 13 13
9 8 12 18 18 18 17 15 13 11 10 9 9 8 4 1 5 3 5 7 5 2 2 4 6 7 8 8 9 10 10 10 9 7 9 12 13 14 13 13 14 15 15
7 6 8 13 15 17 16 15 14 12 10 9 8 6 4 1 3 4 4 5 3 2 4 6 8 9 8 8 9 9 10 11 10 9 10 11 13 14 14 14 14 15 16
7 8 6 9 12 13 14 15 14 13 12 10 8 6 4 2 1 3 3 2 1 3 5 7 9 8 8 9 10 10 10 10 8 9 10 12 14 15 15 15 15 15 16
8 7 8 8 9 11 12 13 13 12 12 11 9 7 4 1 0 1 1 2 4 5 6 8 10 11 11 11 11 12 11 10 10 9 10 11 13 14 15 15 15 15 16
13 12 9 10 9 8 9 10 9 9 10 10 8 6 4 2 1 2 3 3 4 5 5 8 12 13 13 12 13 12 11 10 9 9 10 11 11 11 12 13 14 14 14
10 12 12 12 9 7 5 7 7 7 8 8 7 6 5 4 2 2 2 4 4 4 7 11 13 12 11 10 9 9 9 9 8 9 10 12 11 9 9 9 10 11 12
8 9 11 12 11 9 6 5 6 5 5 5 6 7 6 3 3 3 3 5 7 8 10 9 8 8 9 9 8 7 8 9 9 9 10 13 13 12 11 12 13 14 15
10 10 11 11 12 10 8 5 5 5 5 6 7 7 6 4 4 3 5 8 9 9 8 6 5 6 6 7 8 7 7 10 10 10 11 14 16 16 17 17 16 16 15
12 12 12 14 13 11 9 7 6 5 6 7 7 8 9 8 6 5 6 6 7 8 8 7 5 4 4 4 5 6 5 8 8 9 11 13 16 18 19 20 19 18 18
11 10 12 14 13 12 10 9 6 7 8 6 8 10 11 11 9 8 6 5 5 7 8 6 5 5 6 6 7 5 4 5 6 8 11 13 14 17 20 21 21 19 18
9 8 10 11 13 13 10 9 7 8 8 8 10 11 12 12 12 9 6 5 7 9 7 5 5 5 6 7 7 5 4 3 4 6 9 12 13 13 16 20 21 19 18
8 9 10 11 14 14 12 10 9 7 7 8 10 10 12 13 14 11 6 5 9 7 5 5 5 5 5 8 8 6 4 2 2 4 6 8 10 11 12 16 19 19 18
7 9 11 13 14 15 12 11 9 9 7 8 8 10 12 13 15 12 7 8 8 6 6 5 6 5 3 6 7 7 5 3 1 4 4 4 7 9 11 13 15 16 18
7 10 13 15 14 14 12 10 9 8 7 7 7 10 12 14 14 11 6 6 6 7 6 6 5 6 5 5 5 6 5 4 2 2 2 1 4 9 12 15 17 16 13
8 11 14 15 14 13 11 7 5 7 7 7 6 8 11 13 12 11 7 6 6 6 8 8 6 4 4 5 4 4 5 6 5 4 3 3 6 7 9 17 17 16 16
9 11 12 13 13 13 14 11 11 8 6 5 5 5 6 11 13 12 9 6 6 7 6 6 6 5 4 4 5 5 4 4 5 5 5 4 5 5 7 8 12 16 18
9 9 12 13 14 15 16 16 17 10 7 5 5 5 6 10 11 11 10 9 6 6 7 5 5 3 3 3 3 3 1 3 3 6 5 4 4 7 7 9 10 14 17
9 11 12 13 13 15 15 17 16 11 8 7 7 8 7 6 8 10 10 8 6 6 6 6 4 4 2 1 1 2 2 2 2 3 7 6 7 5 6 8 8 9 15
9 11 13 14 13 13 14 15 16 16 15 13 9 8 6 5 5 6 9 8 6 5 5 4 3 3 2 1 1 1 2 2 2 4 6 11 11 7 9 9 7 6 11
Wind_Direction
212 190 183 169 163 162 159 153 146 138 131 129 136 139 138 139 139 139 141 125 106 80 60 38 30 31 46 65 83 88 81 52 15 12 6 359 341 315 283 257 264 262 266
168 174 182 170 166 164 161 155 151 146 140 140 146 143 135 135 142 146 146 132 111 75 50 31 25 26 34 40 47 49 29 354 349 350 4 7 350 324 304 293 265 214 267
152 167 182 170 167 164 162 157 156 156 155 151 151 154 146 151 156 155 160 144 109 78 52 34 30 26 22 14 7 360 348 338 323 326 2 5 345 331 310 290 241 272 282
154 163 173 168 164 164 163 160 162 163 163 163 161 167 179 185 172 162 163 161 150 124 76 50 42 31 24 4 342 328 320 315 326 329 6 354 340 328 322 287 247 253 270
151 159 167 167 165 166 165 165 168 169 170 173 175 166 188 206 199 186 175 178 172 157 124 83 49 12 356 342 327 319 318 319 329 320 319 320 318 314 311 299 268 264 279
154 157 166 167 170 169 167 169 172 175 178 180 181 171 154 223 224 212 195 174 160 152 144 99 343 318 322 320 312 309 307 301 303 284 286 290 290 292 290 286 283 274 265
158 162 169 172 175 173 172 173 177 180 183 184 188 189 179 18 332 222 195 155 149 152 191 309 316 317 323 324 318 314 316 318 298 273 277 278 278 282 280 274 269 271 265
161 167 177 182 179 175 175 176 178 182 185 185 189 194 192 30 16 41 155 149 158 194 284 315 324 322 323 322 318 315 314 316 311 288 274 273 275 281 281 275 268 265 267
164 167 177 182 178 175 174 176 178 181 183 183 188 189 182 154 34 45 108 143 171 277 317 320 321 323 323 320 317 318 319 319 312 292 281 274 277 282 282 277 270 262 258
173 176 173 173 171 169 173 177 180 182 182 183 182 164 149 148 76 44 78 118 248 294 312 317 318 322 329 331 335 341 342 335 322 304 293 289 296 296 292 290 284 273 266
192 190 181 175 171 168 170 179 181 184 184 176 165 152 144 141 313 320 290 291 308 315 324 331 345 2 13 15 15 13 9 359 340 322 309 307 314 314 314 313 308 296 285
202 201 195 191 184 172 173 168 169 174 173 166 159 151 142 112 5 295 304 327 338 338 350 19 35 39 41 34 29 27 18 6 359 342 332 333 331 324 322 323 324 324 315
202 202 200 198 189 176 162 152 156 158 159 161 162 161 141 108 79 75 44 23 24 29 46 52 53 45 40 35 29 24 16 9 357 346 344 353 353 346 340 341 349 356 354
203 205 203 200 191 182 163 155 158 157 160 163 169 165 143 119 97 83 77 71 61 63 63 55 51 47 41 35 28 22 18 4 355 354 1 14 25 25 25 30 30 28 24
212 207 196 195 192 181 165 156 158 161 165 166 166 165 150 131 124 106 81 72 65 66 65 56 48 44 33 21 18 19 12 360 3 9 13 26 33 31 35 32 27 22 21
225 217 194 188 184 174 168 164 164 159 156 153 156 156 149 137 123 102 84 72 63 63 65 59 50 45 30 10 3 7 10 6 14 20 25 31 33 33 33 30 25 20 19
236 216 193 184 172 168 165 164 159 156 149 145 142 141 131 121 109 99 89 77 65 65 65 58 43 44 28 9 350 349 7 8 26 28 33 38 33 35 33 30 24 18 14
234 198 183 177 165 158 151 145 141 144 140 131 124 120 115 111 107 101 94 83 72 62 51 45 29 26 17 358 335 332 358 357 30 38 48 46 37 39 32 27 21 14 8
207 175 161 157 155 145 132 122 117 119 115 116 114 113 112 108 106 102 93 81 71 59 42 36 34 28 8 350 329 327 354 347 37 40 49 49 39 40 32 22 15 6 358
178 157 144 147 145 133 123 116 111 101 94 96 101 108 109 106 105 100 89 77 71 62 43 30 26 21 3 342 328 325 331 338 8 30 37 41 30 29 22 13 6 353 347
158 150 148 150 146 139 136 133 128 117 108 96 93 100 105 106 104 98 93 79 72 73 60 39 30 17 1 353 349 331 335 355 331 335 12 25 18 17 12 3 351 337 330
170 157 153 153 152 145 140 131 121 119 107 94 94 93 99 103 102 97 93 90 85 81 61 46 40 28 6 12 11 354 349 342 341 336 344 12 17 12 4 346 332 322 316
179 163 155 151 148 140 132 121 117 109 105 104 101 86 83 96 95 98 99 97 83 79 71 58 47 50 14 359 31 39 11 319 306 313 326 342 0 4 335 320 317 312 308
176 153 147 149 147 145 141 142 143 144 142 142 132 113 92 90 95 98 96 90 82 80 75 62 59 52 53 14 350 14 254 249 288 311 299 297 327 317 299 316 307 299 296
156 152 150 147 150 153 152 151 147 136 123 122 116 112 97 84 87 92 91 87 81 79 76 66 59 59 77 75 349 317 309 295 255 277 292 303 306 276 288 289 283 287 293
151 152 154 153 155 155 149 149 147 141 138 138 134 126 113 98 82 83 88 85 83 79 74 67 61 55 52 39 301 256 254 283 297 281 288 307 307 293 285 277 277 285 296
Height
1496 1497 1498 1501 1503 1505 1506 1507 1508 1509 1510 1510 1510 1511 1512 1513 1514 1515 1516 1516 1516 1517 1516 1516 1516 1517 1518 1519 1519 1520 1521 1522 1522 1522 1520 1518 1518 1518 1519 1519 1520 1521 1520
1496 1496 1498 1500 1503 1504 1506 1507 1508 1509 1509 1510 1509 1511 1512 1513 1513 1514 1516 1516 1516 1516 1515 1515 1516 1517 1518 1519 1519 1519 1520 1520 1520 1520 1518 1517 1517 1517 1517 1517 1518 1519 1519
1496 1496 1498 1500 1502 1504 1506 1507 1508 1508 1509 1509 1509 1511 1512 1513 1514 1514 1515 1516 1516 1516 1515 1514 1514 1516 1517 1518 1518 1518 1518 1518 1518 1518 1517 1516 1516 1517 1517 1517 1517 1518 1518
1496 1497 1497 1500 1502 1504 1506 1507 1508 1508 1509 1509 1509 1511 1512 1514 1515 1515 1515 1516 1517 1516 1515 1515 1515 1515 1516 1517 1518 1517 1516 1516 1517 1517 1516 1515 1515 1515 1516 1516 1517 1517 1517
1496 1497 1499 1500 1502 1504 1506 1507 1508 1509 1509 1509 1509 1511 1513 1514 1515 1516 1516 1517 1517 1517 1516 1516 1516 1516 1516 1517 1517 1517 1516 1516 1516 1516 1515 1515 1514 1514 1514 1515 1516 1517 1516
1496 1498 1500 1501 1503 1504 1506 1507 1508 1509 1509 1509 1509 1511 1513 1515 1516 1516 1517 1517 1517 1518 1518 1517 1517 1517 1517 1517 1517 1517 1517 1516 1516 1516 1515 1514 1514 1513 1513 1513 1514 1515 1514
1496 1498 1500 1501 1503 1504 1506 1507 1508 1509 1509 1509 1509 1511 1513 1515 1516 1517 1517 1517 1517 1518 1518 1517 1517 1517 1516 1516 1517 1517 1516 1516 1515 1515 1514 1514 1513 1512 1511 1511 1511 1511 1511
1496 1498 1500 1501 1503 1504 1506 1507 1508 1509 1510 1509 1510 1512 1514 1515 1516 1517 1517 1517 1518 1518 1518 1518 1517 1516 1515 1515 1516 1516 1515 1515 1513 1513 1513 1512 1511 1510 1509 1509 1509 1509 1508
1496 1497 1499 1501 1502 1504 1505 1507 1508 1509 1510 1511 1511 1512 1514 1514 1515 1516 1517 1517 1518 1518 1518 1517 1516 1516 1515 1515 1515 1515 1514 1513 1512 1512 1511 1510 1509 1508 1508 1507 1507 1507 1506
1495 1497 1499 1500 1501 1503 1505 1506 1508 1509 1510 1511 1512 1513 1513 1514 1515 1516 1517 1517 1518 1517 1517 1517 1517 1516 1515 1515 1515 1514 1513 1512 1511 1510 1509 1508 1507 1506 1506 1506 1505 1504 1504
1493 1495 1498 1499 1500 1502 1504 1506 1507 1509 1510 1511 1511 1512 1512 1513 1514 1515 1516 1517 1517 1517 1516 1516 1516 1515 1514 1513 1513 1512 1511 1510 1509 1508 1507 1506 1505 1504 1503 1503 1502 1501 1500
1491 1493 1496 1498 1499 1501 1502 1504 1506 1508 1509 1510 1511 1511 1512 1513 1514 1514 1515 1515 1516 1516 1516 1515 1515 1514 1512 1511 1510 1509 1508 1507 1506 1505 1504 1503 1502 1501 1500 1499 1498 1497 1496
1490 1491 1494 1496 1498 1499 1501 1503 1505 1507 1508 1509 1510 1511 1511 1512 1513 1514 1515 1514 1515 1515 1515 1514 1514 1512 1510 1509 1508 1506 1505 1504 1502 1502 1501 1499 1499 1498 1497 1496 1495 1494 1493
1488 1489 1491 1494 1496 1497 1500 1502 1504 1506 1507 1508 1509 1510 1511 1511 1512 1514 1514 1513 1514 1514 1513 1512 1511 1510 1508 1507 1505 1504 1502 1500 1499 1498 1496 1495 1495 1494 1494 1492 1491 1490 1490
1486 1487 1489 1491 1493 1495 1497 1500 1503 1505 1506 1507 1508 1509 1510 1511 1512 1513 1513 1513 1513 1512 1511 1510 1509 1507 1505 1504 1503 1500 1498 1496 1494 1493 1492 1491 1491 1491 1490 1488 1488 1487 1487
1482 1484 1485 1487 1490 1492 1495 1497 1501 1503 1505 1505 1506 1508 1509 1510 1511 1511 1511 1512 1512 1510 1509 1508 1506 1504 1502 1501 1499 1497 1494 1491 1490 1489 1489 1488 1488 1488 1487 1486 1485 1484 1483
1478 1479 1481 1482 1485 1488 1492 1495 1498 1501 1503 1504 1505 1507 1508 1509 1510 1510 1510 1510 1509 1508 1507 1506 1504 1501 1499 1497 1496 1493 1490 1488 1487 1487 1487 1487 1486 1485 1484 1483 1482 1481 1480
1473 1474 1475 1477 1480 1484 1488 1491 1495 1498 1500 1502 1504 1505 1506 1508 1508 1508 1509 1509 1508 1506 1505 1503 1501 1498 1496 1494 1493 1491 1488 1486 1485 1485 1485 1485 1484 1484 1483 1481 1479 1478 1476
1467 1468 1470 1472 1476 1480 1483 1488 1492 1494 1497 1499 1502 1503 1504 1506 1507 1507 1507 1507 1506 1504 1502 1500 1497 1494 1493 1492 1490 1488 1486 1484 1483 1483 1483 1483 1482 1481 1480 1478 1476 1474 1472
1461 1463 1465 1468 1472 1476 1479 1484 1488 1491 1493 1496 1499 1501 1503 1504 1505 1505 1506 1505 1504 1502 1499 1497 1495 1492 1491 1489 1488 1486 1483 1482 1481 1480 1480 1480 1479 1478 1476 1474 1472 1469 1467
1455 1457 1460 1464 1468 1471 1474 1480 1484 1487 1491 1494 1497 1499 1501 1502 1503 1504 1504 1503 1501 1499 1496 1494 1493 1492 1489 1487 1484 1482 1481 1480 1478 1477 1477 1477 1476 1474 1472 1470 1467 1464 1461
1450 1452 1456 1460 1464 1467 1472 1478 1482 1485 1489 1492 1495 1497 1500 1501 1502 1502 1501 1500 1498 1496 1494 1493 1492 1490 1488 1485 1483 1480 1478 1477 1476 1476 1476 1474 1470 1468 1466 1464 1461 1458 1455
1446 1448 1451 1455 1460 1464 1470 1475 1479 1483 1486 1489 1492 1495 1498 1499 1500 1500 1499 1498 1496 1494 1493 1492 1490 1489 1488 1486 1484 1482 1479 1475 1471 1467 1468 1466 1463 1461 1458 1455 1453 1451 1448
1441 1445 1449 1453 1457 1462 1467 1472 1476 1479 1482 1486 1490 1493 1496 1497 1498 1497 1497 1496 1494 1492 1491 1490 1489 1488 1486 1484 1483 1481 1480 1476 1471 1463 1460 1459 1456 1453 1450 1448 1445 1443 1440
1437 1441 1445 1449 1454 1460 1465 1469 1474 1477 1481 1485 1488 1492 1494 1495 1496 1496 1495 1494 1492 1491 1490 1489 1488 1486 1484 1482 1480 1478 1476 1473 1469 1463 1453 1449 1446 1444 1442 1440 1437 1434 1431
1434 1438 1441 1445 1451 1457 1462 1466 1471 1475 1478 1482 1486 1489 1491 1493 1494 1494 1493 1491 1490 1489 1488 1487 1486 1484 1482 1480 1477 1474 1471 1468 1465 1460 1452 1443 1437 1434 1433 1431 1429 1427 1423